Tracking 25995 objects as of 19-Aug-2022
HD Live streaming from Space Station
objects crossing your sky now

COSMOS 1720

Track COSMOS 1720 now!
10-day predictions
COSMOS 1720 is classified as:


NORAD ID: 16453
Int'l Code: 1986-002E
Perigee: 1,447.0 km
Apogee: 1,491.3 km
Inclination: 74.0 °
Period: 115.1 minutes
Semi major axis: 7840 km
RCS: 0.701 m2 (medium)
Launch date: January 9, 1986
Source: Commonwealth of Independent States (former USSR) (CIS)
Launch site: PLESETSK MISSILE AND SPACE COMPLEX (PKMTR)
aabbcc
Your satellite tracking list
Your tracking list is empty




NASA's NSSDC Master Catalog

Two Line Element Set (TLE):
1 16453U 86002E   22230.67720236 -.00000004  00000-0  82055-4 0  9996
2 16453  73.9919 328.9151 0028256 228.4154 201.0559 12.50601658671287
Source of the keplerian elements: AFSPC